Juneau, WI

3:24 PM CDT on April 28, 2017 (GMT -0500)
Dodge County

Weather History for KUNU - October, 2012

Change the Weather History Date:

Tuesday, October 16, 2012

  Actual Average Record
Temperature  
Mean Temperature 50 °F -  
Max Temperature 64 °F 57 °F 75 °F (1998)
Min Temperature 37 °F 39 °F 23 °F (1992)
Degree Days  
Heating Degree Days 14    
Moisture  
Dew Point 40 °F    
Average Humidity 72    
Maximum Humidity 100    
Minimum Humidity 34    
Precipitation  
Precipitation 0.04 in - - ()
Sea Level Pressure  
Sea Level Pressure 29.70 in    
Wind  
Wind Speed 9 mph (SE)    
Max Wind Speed 20 mph    
Max Gust Speed 25 mph    
Visibility 9 miles    
Events Rain    
Averages and records for this station are not official NWS values.
T = Trace of Precipitation, MM = Missing Value Source: NWS Daily Summary

Daily Weather History Graph

Daily Weather History Graph

Search for Another Location

Airport or City:

Trip Planner

Search our weather history database for the weather conditions in past years. The results will help you decide how hot, cold, wet, or windy it might be!

Date:

Astronomy

Oct. 16, 2012 Rise Set
Actual Time 7:10 AM CDT 6:09 PM CDT
Civil Twilight 6:41 AM CDT 6:38 PM CDT
Nautical Twilight 6:08 AM CDT 7:11 PM CDT
Astronomical Twilight 5:35 AM CDT 7:44 PM CDT
Moon 8:37 AM CDT (10/16) 6:49 PM CDT (10/16)
Length of Visible Light 11h 56m
Length of Day
10h 58m
New Moon, 2% of the Moon is Illuminated
Oct 16
New Moon
Oct 21
First Quarter
Oct 29
Full
Nov 6
Last Quarter
Nov 13
New

Hourly Weather History & Observations

Time (CDT) Temp. Windchill Dew Point Humidity Pressure Visibility Wind Dir Wind Speed Gust Speed Precip Events Conditions
12:15 AM 37.4 °F 32.8 °F 37.4 °F 100% 29.92 in 10.0 mi ESE 5.8 mph - N/A   Clear
12:35 AM 37.4 °F 33.8 °F 37.4 °F 100% 29.92 in 10.0 mi ESE 4.6 mph - N/A   Clear
12:55 AM 37.4 °F - 37.4 °F 100% 29.92 in 10.0 mi Calm Calm - N/A   Clear
1:15 AM 37.4 °F 34.9 °F 37.4 °F 100% 29.93 in 10.0 mi ESE 3.5 mph - N/A   Clear
1:35 AM 37.4 °F 33.8 °F 37.4 °F 100% 29.92 in 10.0 mi ESE 4.6 mph - N/A   Clear
1:55 AM 37.4 °F 33.8 °F 37.4 °F 100% 29.92 in 10.0 mi SE 4.6 mph - N/A   Scattered Clouds
2:15 AM 37.4 °F 34.9 °F 37.4 °F 100% 29.92 in 10.0 mi SE 3.5 mph - N/A   Mostly Cloudy
2:35 AM 37.4 °F 33.8 °F 37.4 °F 100% 29.92 in 10.0 mi SE 4.6 mph - N/A   Mostly Cloudy
2:55 AM 39.2 °F 35.9 °F 37.4 °F 93% 29.90 in 10.0 mi ESE 4.6 mph - N/A   Mostly Cloudy
3:15 AM 37.4 °F 32.8 °F 37.4 °F 100% 29.89 in 7.0 mi ESE 5.8 mph - N/A   Scattered Clouds
3:35 AM 37.4 °F 33.8 °F 37.4 °F 100% 29.88 in 7.0 mi SE 4.6 mph - N/A   Clear
3:55 AM 39.2 °F 34.2 °F 37.4 °F 93% 29.88 in 7.0 mi SE 6.9 mph - N/A   Clear
4:15 AM 39.2 °F 37.0 °F 37.4 °F 93% 29.88 in 7.0 mi SE 3.5 mph - N/A   Clear
4:35 AM 39.2 °F 35.0 °F 39.2 °F 100% 29.87 in 5.0 mi ESE 5.8 mph - N/A   Clear
4:55 AM 41.0 °F 37.1 °F 39.2 °F 93% 29.87 in 5.0 mi SE 5.8 mph - N/A   Scattered Clouds
5:15 AM 41.0 °F 37.1 °F 39.2 °F 93% 29.87 in 7.0 mi SE 5.8 mph - N/A   Overcast
5:35 AM 41.0 °F 37.1 °F 41.0 °F 100% 29.86 in 5.0 mi ESE 5.8 mph - N/A   Mostly Cloudy
5:55 AM 41.0 °F 36.4 °F 41.0 °F 100% 29.86 in 7.0 mi SE 6.9 mph - N/A   Mostly Cloudy
6:15 AM 42.8 °F 39.3 °F 41.0 °F 93% 29.86 in 7.0 mi SE 5.8 mph - N/A   Scattered Clouds
6:35 AM 42.8 °F 41.1 °F 41.0 °F 93% 29.86 in 7.0 mi SE 3.5 mph - N/A   Scattered Clouds
7:15 AM 42.8 °F 39.3 °F 41.0 °F 93% 29.86 in 10.0 mi SE 5.8 mph - N/A   Clear
7:35 AM 42.8 °F 38.6 °F 41.0 °F 93% 29.84 in 10.0 mi ESE 6.9 mph - N/A   Clear
7:55 AM 42.8 °F 37.5 °F 41.0 °F 93% 29.84 in 10.0 mi SE 9.2 mph - N/A   Clear
8:15 AM 44.6 °F 39.2 °F 41.0 °F 87% 29.84 in 10.0 mi SE 10.4 mph - N/A   Clear
8:35 AM 46.4 °F 41.5 °F 41.0 °F 81% 29.83 in 10.0 mi SE 10.4 mph - N/A   Clear
8:55 AM 48.2 °F - 39.2 °F 71% 29.83 in 10.0 mi SSE 10.4 mph - N/A   Clear
9:15 AM 50.0 °F - 39.2 °F 66% 29.82 in 10.0 mi SE 13.8 mph 18.4 mph N/A   Clear
9:35 AM 50.0 °F - 37.4 °F 62% 29.80 in 10.0 mi SSE 15.0 mph 20.7 mph N/A   Clear
9:55 AM 51.8 °F - 39.2 °F 62% 29.80 in 10.0 mi SSE 15.0 mph 21.9 mph N/A   Clear
10:15 AM 51.8 °F - 39.2 °F 62% 29.79 in 10.0 mi SSE 18.4 mph 21.9 mph N/A   Clear
10:35 AM 51.8 °F - 39.2 °F 62% 29.77 in 10.0 mi SSE 19.6 mph 24.2 mph N/A   Clear
10:55 AM 53.6 °F - 39.2 °F 58% 29.77 in 10.0 mi SSE 17.3 mph 21.9 mph N/A   Clear
11:15 AM 53.6 °F - 39.2 °F 58% 29.76 in 10.0 mi SSE 19.6 mph - N/A   Clear
11:35 AM 55.4 °F - 39.2 °F 54% 29.74 in 10.0 mi SSE 17.3 mph - N/A   Clear
11:55 AM 59.0 °F - 39.2 °F 48% 29.72 in 10.0 mi SSE 16.1 mph 25.3 mph N/A   Clear
12:15 PM 59.0 °F - 37.4 °F 45% 29.71 in 10.0 mi SSE 19.6 mph 24.2 mph N/A   Clear
12:35 PM 62.6 °F - 37.4 °F 39% 29.70 in 10.0 mi SSE 18.4 mph - N/A   Clear
12:55 PM 62.6 °F - 35.6 °F 37% 29.69 in 10.0 mi SSE 18.4 mph 24.2 mph N/A   Clear
1:15 PM 62.6 °F - 37.4 °F 39% 29.67 in 10.0 mi SSE 16.1 mph 21.9 mph N/A   Clear
1:35 PM 62.6 °F - 37.4 °F 39% 29.65 in 10.0 mi SSE 18.4 mph 24.2 mph N/A   Clear
1:55 PM 64.4 °F - 35.6 °F 34% 29.63 in 10.0 mi SSE 16.1 mph 24.2 mph N/A   Clear
2:15 PM 64.4 °F - 35.6 °F 34% 29.61 in 10.0 mi SSE 17.3 mph 25.3 mph N/A   Clear
2:35 PM 64.4 °F - 37.4 °F 37% 29.60 in 10.0 mi SSE 12.7 mph 25.3 mph N/A   Clear
2:55 PM 64.4 °F - 37.4 °F 37% 29.59 in 10.0 mi SSE 18.4 mph 24.2 mph N/A   Scattered Clouds
3:15 PM 64.4 °F - 37.4 °F 37% 29.58 in 10.0 mi SSE 13.8 mph 19.6 mph N/A   Clear
3:35 PM 62.6 °F - 37.4 °F 39% 29.60 in 10.0 mi South 15.0 mph - N/A   Mostly Cloudy
3:55 PM 59.0 °F - 44.6 °F 59% 29.60 in 7.0 mi SSE 15.0 mph - 0.02 in Rain Rain
4:15 PM 59.0 °F - 44.6 °F 59% 29.58 in 10.0 mi SE 13.8 mph - 0.01 in Rain Rain
4:35 PM 57.2 °F - 44.6 °F 63% 29.54 in 10.0 mi SE 15.0 mph - 0.02 in Rain Light Rain
4:55 PM 59.0 °F - 44.6 °F 59% 29.54 in 10.0 mi SE 16.1 mph - 0.02 in   Clear
5:15 PM 60.8 °F - 44.6 °F 55% 29.55 in 10.0 mi SE 13.8 mph 18.4 mph N/A   Clear
5:35 PM 59.0 °F - 42.8 °F 55% 29.55 in 10.0 mi SE 11.5 mph - N/A   Clear
5:55 PM 59.0 °F - 42.8 °F 55% 29.56 in 10.0 mi SE 10.4 mph - N/A   Clear
6:15 PM 57.2 °F - 42.8 °F 59% 29.55 in 10.0 mi ESE 11.5 mph - N/A   Mostly Cloudy
6:35 PM 55.4 °F - 42.8 °F 63% 29.53 in 10.0 mi East 11.5 mph - N/A   Scattered Clouds
6:55 PM 55.4 °F - 42.8 °F 63% 29.52 in 10.0 mi ESE 12.7 mph - N/A   Clear
7:15 PM 53.6 °F - 42.8 °F 67% 29.54 in 10.0 mi ESE 8.1 mph - N/A   Clear
7:35 PM 55.4 °F - 42.8 °F 63% 29.54 in 10.0 mi ESE 11.5 mph - N/A   Clear
7:55 PM 53.6 °F - 42.8 °F 67% 29.52 in 10.0 mi ESE 10.4 mph - N/A   Clear
8:15 PM 53.6 °F - 42.8 °F 67% 29.52 in 10.0 mi ESE 10.4 mph - N/A   Clear
8:35 PM 53.6 °F - 44.6 °F 72% 29.51 in 10.0 mi ESE 10.4 mph - N/A   Clear
8:55 PM 53.6 °F - 44.6 °F 72% 29.50 in 10.0 mi ESE 9.2 mph - N/A   Clear
9:15 PM 53.6 °F - 44.6 °F 72% 29.50 in 10.0 mi ESE 6.9 mph - N/A   Clear
9:35 PM 53.6 °F - 44.6 °F 72% 29.50 in 10.0 mi East 6.9 mph - N/A   Clear
9:55 PM 53.6 °F - 44.6 °F 72% 29.50 in 10.0 mi East 6.9 mph - N/A   Scattered Clouds
10:15 PM 53.6 °F - 44.6 °F 72% 29.49 in 10.0 mi East 6.9 mph - N/A   Mostly Cloudy
10:35 PM 53.6 °F - 44.6 °F 72% 29.49 in 10.0 mi East 6.9 mph - N/A   Overcast
10:55 PM 53.6 °F - 44.6 °F 72% 29.49 in 10.0 mi ESE 9.2 mph - N/A   Scattered Clouds
11:15 PM 51.8 °F - 44.6 °F 76% 29.48 in 10.0 mi ESE 8.1 mph - N/A   Clear
11:35 PM 51.8 °F - 44.6 °F 76% 29.48 in 10.0 mi SE 9.2 mph - N/A   Clear
11:55 PM 53.6 °F - 46.4 °F 77% 29.48 in 10.0 mi SE 9.2 mph - N/A   Clear